Regional Weather Roundup
Issued by NWS

Home | Current Version | Previous Version | Graphics & Text | Print | Product List | Glossary On
Versions: 1 2 3 4 5 6 7 8 9 10 11 12 13 14 15 16 17 18 19 20 21 22 23 24 25 26 27 28 29 30 31 32 33 34 35 36 37 38 39 40 41 42 43 44 45 46 47 48 49 50
000
ASUS43 KTOP 190659
RWRKS

WEATHER ROUNDUP FOR KANSAS
NATIONAL WEATHER SERVICE GOODLAND KS
200 AM CDT SAT APR 19 2014

NOTE:  "FAIR" INDICATES FEW OR NO CLOUDS BELOW 12,000 FEET WITH NO
SIGNIFICANT WEATHER AND/OR OBSTRUCTIONS TO VISIBILITY.

KSZ001>006-013>018-027>032-041>047-190800-
NORTHWEST KANSAS

CITY           SKY/WX    TMP DP  RH WIND       PRES   REMARKS
GOODLAND       MOCLDY    53  44  71 S23       29.90F
HAYS           CLEAR     55  45  67 S14G21    30.02F
HILL CITY      PTCLDY    56  45  66 S15G23    29.97F
RUSSELL        PTCLDY    56  44  64 S18       30.02S
$$

KSZ061>065-074>080-084>089-190800-
SOUTHWEST KANSAS

CITY           SKY/WX    TMP DP  RH WIND       PRES   REMARKS
DODGE CITY     MOCLDY    52  45  77 S18       30.05S
ELKHART          N/A     55  40  57 S16         N/A
GARDEN CITY    MOCLDY    53  45  74 S16       29.99F
GREAT BEND     CLEAR     54  43  66 S17       30.05S
LIBERAL        MOCLDY    54  43  66 SE18      30.04S
$$

KSZ066>073-081>083-090>101-190800-
SOUTHEAST KANSAS

CITY           SKY/WX    TMP DP  RH WIND       PRES   REMARKS
CHANUTE        CLEAR     45  39  79 S3        30.16S HAZE
COFFEYVILLE    CLEAR     48  41  76 CALM      30.16S
HUTCHINSON     CLEAR     54  39  57 S12       30.09S
NEWTON         PTCLDY    50  36  57 S9        30.14S
PARSONS        CLEAR     43  37  79 CALM      30.17S
WICHITA INTL   PTCLDY    54  40  59 S12       30.11F
WICHITA JABRA  CLEAR     54  40  59 S9        30.12S
WINFIELD       CLEAR     52  41  66 SE8       30.14F HAZE
$$

KSZ007>012-019>026-033>040-048>060-102>105-190800-
NORTHEAST KANSAS

CITY           SKY/WX    TMP DP  RH WIND       PRES   REMARKS
CONCORDIA      CLEAR     56  40  55 S16       30.06S
EMPORIA        CLEAR     48  39  71 S8        30.13F
LAWRENCE       PTCLDY    46  41  82 CALM      30.16S
MANHATTAN      CLEAR     56  40  55 S10       30.10F
OLATHE IND     PTCLDY    54  41  61 SE9       30.17S
OLATHE EXE     PTCLDY    54  41  61 SE8       30.16F
SALINA         CLEAR     57  39  51 S13       30.07F
TOPEKA BILLARD CLEAR     52  41  66 E5        30.14F
TOPEKA FORBES  CLEAR     50  41  71 SE6       30.14F
$$



USA.gov is the U.S. government's official web portal to all federal, state and local government web resources and services.